Location: Unspecified
(17.6330°N, 0.0000°E)
Time: 17:34:48
(UTC+00:00)

Vanguard 3 - All Passes

Search period start: 17 June 2019 00:00
Search period end: 27 June 2019 00:00
Orbit: 508 x 3263 km, 33.3° (Epoch: 16 June)

Date Brightness Start Highest point End Pass type
(mag) Time Alt. Az. Time Alt. Az. Time Alt. Az.
17 Jun - 07:05:55 10° S 07:16:09 17° SSE 07:24:46 10° ESE daylight
17 Jun - 09:17:17 10° SW 09:33:11 45° SSE 09:42:59 10° E daylight
17 Jun - 11:34:09 10° WSW 11:47:36 73° NNW 11:54:52 10° NE daylight
17 Jun - 13:54:09 10° WNW 14:00:30 23° NNW 14:04:50 10° NNE daylight
17 Jun - 16:12:31 10° NNW 16:13:58 11° N 16:15:20 10° NNE daylight
17 Jun - 18:23:15 10° NW 18:26:39 34° NNE 18:30:24 10° E daylight
17 Jun - 20:34:39 10° W 20:38:11 26° SSW 20:43:05 10° SSE visible
18 Jun - 08:01:26 10° SSW 08:16:48 32° SSE 08:27:43 10° E daylight
18 Jun - 10:16:23 10° SW 10:32:32 77° SSE 10:41:31 10° ENE daylight
18 Jun - 12:35:38 10° W 12:46:05 40° NNW 12:52:12 10° NE daylight
18 Jun - 14:55:57 10° NW 14:59:23 15° NNW 15:02:09 10° NNE daylight
18 Jun - 17:10:03 10° NNW 17:12:50 17° NNE 17:15:23 10° ENE daylight
18 Jun - 19:20:51 10° WNW 19:24:28 60° SSW 19:29:05 10° SE visible
19 Jun - 06:46:56 10° S 06:59:47 21° SSE 07:10:25 10° ESE daylight
19 Jun - 08:59:20 10° SW 09:16:44 54° SSE 09:27:28 10° ENE daylight
19 Jun - 11:17:01 10° WSW 11:31:22 65° NNW 11:39:15 10° NE daylight
19 Jun - 13:37:50 10° WNW 13:44:46 24° NNW 13:49:27 10° NNE daylight
19 Jun - 15:55:51 10° NNW 15:58:29 14° N 16:00:44 10° NE daylight
19 Jun - 18:07:23 10° NW 18:11:02 48° NNE 18:14:46 10° ESE daylight
19 Jun - 20:19:49 10° WSW 20:22:35 17° SSW 20:25:57 10° SSE visible
20 Jun - 05:35:40 10° SSE 05:42:10 12° SSE 05:48:22 10° SE daylight
20 Jun - 07:43:15 10° SSW 08:00:13 38° SSE 08:12:22 10° E daylight
20 Jun - 09:58:51 10° SW 10:16:06 87° SSE 10:25:51 10° ENE daylight
20 Jun - 12:18:56 10° W 12:30:04 38° NNW 12:36:39 10° NE daylight
20 Jun - 14:39:31 10° NW 14:43:51 17° N 14:47:09 10° NNE daylight
20 Jun - 16:53:47 10° NW 16:57:17 23° NNE 17:00:17 10° ENE daylight
20 Jun - 19:05:23 10° WNW 19:08:49 39° SSW 19:12:49 10° SE visible
21 Jun - 06:28:28 10° SSW 06:43:12 26° SE 06:55:29 10° E daylight
21 Jun - 08:41:32 10° SW 09:00:06 63° SSE 09:11:48 10° ENE daylight
21 Jun - 10:59:55 10° WSW 11:15:04 59° NNW 11:23:34 10° NE daylight
21 Jun - 13:21:23 10° WNW 13:29:03 24° NNW 13:34:06 10° NE daylight
21 Jun - 15:39:16 10° NW 15:42:59 18° N 15:45:56 10° NE daylight
21 Jun - 17:51:30 10° NW 17:55:25 70° NNE 17:59:07 10° ESE daylight
21 Jun - 20:05:59 10° SW 20:06:55 11° SSW 20:07:54 10° SSW visible
22 Jun - 05:15:58 10° S 05:25:46 16° SE 05:35:06 10° ESE daylight
22 Jun - 07:25:18 10° SSW 07:43:28 45° SE 07:56:46 10° ENE daylight
22 Jun - 09:41:25 10° WSW 09:59:31 85° NNW 10:10:05 10° ENE daylight
22 Jun - 12:02:13 10° W 12:14:02 37° NNW 12:21:06 10° NE daylight
22 Jun - 14:22:57 10° NW 14:28:18 19° N 14:32:10 10° NE daylight
22 Jun - 16:37:29 10° NW 16:41:45 31° NNE 16:45:07 10° E daylight
22 Jun - 18:50:01 10° W 18:53:09 26° SSW 18:56:30 10° SSE daylight
23 Jun - 06:10:21 10° SSW 06:26:26 31° SE 06:40:09 10° E daylight
23 Jun - 08:23:52 10° SW 08:43:18 72° SSE 08:55:59 10° ENE daylight
23 Jun - 10:42:50 10° WSW 10:58:42 55° NNW 11:07:52 10° NE daylight
23 Jun - 13:04:48 10° WNW 13:13:18 26° NNW 13:18:50 10° NE daylight
23 Jun - 15:22:38 10° NW 15:27:30 22° N 15:31:01 10° ENE daylight
23 Jun - 17:35:35 10° WNW 17:39:47 79° SSW 17:43:26 10° SE daylight
24 Jun - 04:57:19 10° S 05:09:10 19° SE 05:20:38 10° ESE visible
24 Jun - 07:07:32 10° SW 07:26:32 52° SE 07:40:57 10° ENE daylight
24 Jun - 09:24:04 10° WSW 09:42:51 77° NNW 09:54:15 10° NE daylight
24 Jun - 11:45:26 10° W 11:58:00 37° NNW 12:05:34 10° NE daylight
24 Jun - 14:06:15 10° NW 14:12:44 23° N 14:17:10 10° NE daylight
24 Jun - 16:21:08 10° NW 16:26:11 42° NNE 16:29:51 10° E daylight
24 Jun - 18:34:49 10° W 18:37:25 18° SW 18:40:00 10° S daylight
25 Jun - 05:52:31 10° SSW 06:09:28 36° SE 06:24:29 10° E daylight
25 Jun - 08:06:22 10° SW 08:26:23 80° SSE 08:40:02 10° ENE daylight
25 Jun - 10:25:48 10° W 10:42:18 52° NNW 10:52:08 10° NE daylight
25 Jun - 12:48:05 10° WNW 12:57:33 28° N 13:03:35 10° NE daylight
25 Jun - 15:05:58 10° NW 15:11:58 29° NNE 15:16:01 10° ENE daylight
25 Jun - 17:19:39 10° WNW 17:24:06 54° SW 17:27:41 10° SE daylight
26 Jun - 04:39:12 10° S 04:52:21 23° SE 05:05:32 10° E visible
26 Jun - 06:49:58 10° SW 07:09:27 59° SE 07:24:58 10° ENE daylight
26 Jun - 09:06:49 10° WSW 09:26:05 71° NNW 09:38:20 10° NE daylight
26 Jun - 11:28:37 10° W 11:41:56 37° NNW 11:50:03 10° NE daylight
26 Jun - 13:49:26 10° NW 13:57:09 27° N 14:02:08 10° ENE daylight
26 Jun - 16:04:43 10° NW 16:10:35 59° NNE 16:14:31 10° ESE daylight
26 Jun - 18:20:01 10° WSW 18:21:35 12° SW 18:23:06 10° SSW daylight
